624  
ASUS43 KDTX 290510  
RWRMI  
MICHIGAN HOURLY REGIONAL WEATHER ROUNDUP  
NATIONAL WEATHER SERVICE DETROIT/PONTIAC MI  
100 AM EDT SUN MAY 29 2016  
 
NOTE: "FAIR" INDICATES FEW OR NO CLOUDS BELOW 12,000 FEET WITH NO  
SIGNIFICANT WEATHER AND/OR TO VISIBILITY
.  
 
MIZ047>049-052>055-059>063-066>070-074>076-081>083-290600-  
SOUTHEAST LOWER MICHIGAN  
 
CITY SKY/WX TMP DP RH WIND PRES REMARKS
 
ADRIAN CLEAR 69 63 81 SW8 30.06R  
ALMA CLOUDY 73 63 71 S10 29.99S  
ANN ARBOR PTCLDY 70 60 70 S5 30.05R  
BAD AXE CLOUDY 71 65 83 SE6 30.01S  
CARO CLOUDY 72 64 76 S3 30.00R  
DETROIT CITY CLOUDY 73 65 75 S6 30.04S  
DETROIT PTCLDY 71 66 84 S3 30.05R  
FLINT CLOUDY 78 62 57 S8 30.02R  
GROSSE ILE CLEAR 70 64 83 S3 30.04R  
HILLSDALE MOCLDY 69 63 81 S6 30.05S  
HOWELL CLOUDY 73 60 62 S8 30.03S  
 
CITY SKY/WX TMP DP RH WIND PRES REMARKS
 
JACKSON CLOUDY 71 64 78 S10 30.04R  
LAMBERTVILLE CLEAR 72 63 73 SW5 30.06R  
LANSING MOCLDY 72 64 76 S6 30.01R  
LAPEER FAIR 74 62 66 SW7 30.03R  
MASON LGT RAIN 72 63 73 S6 30.03R  
MONROE CLEAR 70 62 76 S13 30.04S  
MT. CLEMENS MOCLDY 72 67 83 S7 30.03R  
PONTIAC CLOUDY 74 63 68 SW6 30.03S  
PORT HOPE N/A 73 67 81 VRB3 29.98F  
PORT HURON CLOUDY 68 64 88 S5 30.04S  
TRI CITIES CLOUDY 73 66 78 S8 29.99S  
MIDLAND CLOUDY 70 65 84 SE3 29.98S  
TROY PTCLDY 75 66 73 S7 30.06R  
SAGINAW HB MOCLDY 70 64 83 S5 29.99S  

 
MIZ043>046-050>051-056>058-064>065-071>073-077>080-290600-  
SOUTHWEST LOWER MICHIGAN  
 
CITY SKY/WX TMP DP RH WIND PRES REMARKS
 
BATTLE CREEK MOCLDY 72 64 76 S9 30.02S  
BENTON HARBOR PTCLDY 74 64 71 S8 29.99R  
BIG RAPIDS PTCLDY 63 63 99 CALM 29.97S  
COLDWATER CLOUDY 73 63 72 S5 30.03R  
FREMONT FAIR 67 67 97 CALM 29.97S  
HOLLAND CLEAR 71 62 73 S7 29.99R  
GRAND RAPIDS MOCLDY 75 63 66 S10 29.99R  
IONIA CLOUDY 74 60 60 S12G17 29.99S  
KALAMAZOO CLOUDY 70 63 78 S7 30.01R  
LUDINGTON CLOUDY 61 57 85 S5 29.97F  
MARSHALL CLOUDY 73 64 75 S7 30.02R  
MOUNT PLEASANT CLOUDY 72 63 72 S3 29.97F  
MUSKEGON MOCLDY 73 60 63 W21G26 29.98R  
SOUTH HAVEN CLEAR 73 64 71 SW6 29.99R  

 
MIZ016>042-290600-  
NORTHERN LOWER MICHIGAN  
 
CITY SKY/WX TMP DP RH WIND PRES REMARKS
 
ALPENA CLOUDY 72 63 73 S6 29.96S  
BEAVER ISLAND CLOUDY 67 61 80 S6 29.92S  
BELLAIRE CLEAR 70 62 76 S3 29.93S  
CADILLAC CLEAR 67 62 84 S5 29.97S  
CHARLEVOIX CLEAR 71 62 73 S6 29.95S  
FRANKFORT HVY RAIN 62 58 85 S7 29.96S  
GAYLORD CLEAR 69 62 78 SW7 29.97S  
GRAYLING PTCLDY 64 63 98 CALM 29.99S FOG  
HARBOR SPRINGS CLOUDY 72 63 73 CALM 29.93S  
HOUGHTON LAKE PTCLDY 64 62 93 SE6 29.99R  
MANISTEE CLOUDY 64 57 77 CALM 29.97F  
OSCODA LGT RAIN 70 65 85 S5 29.97S  
PELLSTON PTCLDY 66 63 90 CALM 29.93S  
ROGERS CITY CLOUDY 70 65 85 S5 29.97R  
TRAVERSE CITY PTCLDY 73 62 68 W7 29.93R  

 
MIZ007>008-015-290600-  
EASTERN UPPER MICHIGAN  
 
CITY SKY/WX TMP DP RH WIND PRES REMARKS
 
KINROSS N/A 66 63 88 S6 29.93S  
MACKINAC ISLAN MOCLDY 63 62 99 SE5 29.93S  
NEWBERRY CLOUDY 61 60 94 S10 29.91S  
S. S. MARIE PTCLDY 67 62 84 SE3 29.92R  
MUNISING N/A 65 60 84 S7 29.84S  

 
MIZ004>006-011>014-085-290600-  
CENTRAL UPPER MICHIGAN  
 
CITY SKY/WX TMP DP RH WIND PRES REMARKS
 
MANISTIQUE MOCLDY 56 55 97 SW3 29.89F FOG  
ESCANABA CLOUDY 61 57 88 S5 29.86R  
MENOMINEE CLOUDY 65 60 84 SW6 29.86S  
SAWYER-GWINN PTCLDY 64 61 90 S8 29.85R  

 
MIZ001>003-009>011-084-290600-  
WESTERN UPPER MICHIGAN  
 
CITY SKY/WX TMP DP RH WIND PRES REMARKS
 
IRON MOUNTAIN CLOUDY 64 62 93 CALM 29.83R  
HOUGHTON CLOUDY 58 57 97 CALM 29.80F FOG  
COPPER HARBOR N/A 46 46 100 CALM 29.80S  
IRONWOOD CLOUDY 57 57 100 E8 29.77F  

 
 
ABBREVIATIONS USED IN REMARKS  
TC - TEMPERATURE IN CELSIUS  
WCI - WIND CHILL INDEX  
HX - HEAT INDEX  
VSB - VISIBILITY  
 
 
 
CLICK HERE TO GO TO PREVIOUS BULLETINS.

The Nexlab MI Page Main Text Page